User: anonymous   Login
Location: Unspecified
(0.0000°N, 0.0000°E)
Time: 22:45:56
(UTC+00:00)
Language:

Nadezhda 5 - Orbit

View from above orbital plane
View from above orbital plane
View from above satellite
View from above satellite

Ground track
Ground track

The orbit data is extracted from the following two-line orbital elements,

1 25567U 98072A   17113.90515722 +.00000023 +00000-0 +88979-5 0  9996
2 25567 082.9512 028.3773 0026476 023.0969 048.7389 13.71822913919542
Epoch (UTC): 23 April 2017 21:43:25
Eccentricity: 0.0026476
inclination: 82.9512°
perigee height: 973 km
apogee height: 1012 km
right ascension of ascending node: 28.3773°
argument of perigee: 23.0969°
revolutions per day: 13.71822913
mean anomaly at epoch: 48.7389°
orbit number at epoch: 91954

The dashed part of the orbit path shows where the satellite is in the earth's shadow,  

DLR